Wind_Speed
14 14 13 9 7 6 3 3 2 3 3 5 7 7 8 9 11 11 16 17 17 19 20 20 18 18 19 19 19 20 20 19 19 19 19 18 18 17 16 16 15 15 14 13 12 11 11 10 11
15 14 13 10 8 8 5 4 1 1 4 5 6 7 8 8 14 14 16 17 17 17 17 18 18 17 18 19 19 19 19 19 18 18 18 17 16 16 15 15 15 14 14 14 14 15 14 14 14
19 16 15 12 10 11 7 5 2 0 2 6 6 7 9 11 12 13 14 14 15 15 16 17 17 16 16 16 16 16 16 15 15 15 15 15 15 14 14 14 14 14 13 13 13 13 14 15 16
21 19 17 14 12 12 9 7 5 2 1 5 8 8 9 10 12 11 12 12 12 12 13 15 15 14 13 13 12 11 11 11 11 11 11 12 12 12 12 12 13 14 14 15 16 16 16 17 18
21 21 18 17 14 13 10 8 6 5 3 5 8 8 8 9 11 11 11 11 10 10 10 11 12 11 10 9 9 8 8 8 9 9 10 10 10 11 13 14 14 14 15 16 17 18 19 20 21
22 22 20 18 16 14 11 9 8 7 5 3 7 10 10 10 11 12 11 11 10 8 7 7 7 7 5 4 4 4 5 7 9 10 11 12 12 13 13 14 14 15 16 17 19 20 22 23 23
23 22 20 19 17 15 12 10 9 9 7 6 7 10 12 11 11 10 11 11 10 9 7 5 4 4 2 1 2 4 7 9 11 13 14 15 16 17 17 18 18 19 19 19 20 21 22 23 25
24 23 21 20 18 17 13 12 10 11 10 9 9 10 13 14 12 12 11 11 10 9 8 7 7 6 5 5 6 8 10 12 14 16 17 19 19 19 19 19 20 20 21 22 23 24 24 24 26
25 24 22 21 20 18 16 13 13 12 12 12 10 11 14 16 15 15 15 12 11 11 11 11 10 10 10 11 12 13 15 17 19 20 20 20 20 20 20 20 20 21 22 23 25 26 27 27 28
27 26 25 23 22 20 18 15 16 13 13 14 13 13 14 17 18 18 18 17 15 15 14 14 14 13 13 15 17 19 21 21 23 23 23 22 21 22 21 20 21 23 25 26 27 28 29 31 32
28 28 27 27 25 23 21 17 17 14 16 16 15 15 15 17 19 21 20 20 19 19 19 19 19 18 19 20 21 22 23 24 24 24 24 24 23 22 22 23 23 22 24 27 30 32 34 35 36
29 28 28 28 27 27 24 21 20 16 17 16 17 17 17 18 19 22 23 22 23 23 23 23 23 23 24 24 23 24 24 24 25 26 26 25 25 24 25 22 22 25 28 31 34 36 37 38 39
30 29 29 29 28 28 26 24 23 20 19 19 18 18 21 20 20 21 23 26 26 26 27 27 27 27 26 27 26 25 25 25 27 28 27 27 26 26 23 24 28 30 31 34 38 40 40 40 41
32 32 31 31 30 29 29 28 25 24 23 22 20 20 21 23 22 22 23 25 28 29 29 30 30 30 29 29 28 28 28 28 29 30 29 29 26 24 25 28 29 30 34 38 41 42 41 43 44
37 35 34 34 32 31 31 32 26 29 27 26 24 23 24 23 22 24 25 26 28 29 30 32 32 32 33 32 32 32 32 31 31 32 31 29 26 27 27 30 32 33 36 39 41 43 44 45 45
40 40 38 34 33 34 35 30 30 32 31 29 28 25 25 25 25 26 29 29 30 31 32 33 34 35 36 36 36 34 33 34 34 34 34 32 30 31 32 34 33 36 37 40 44 47 47 49 47
44 43 39 37 37 38 39 34 34 34 34 33 31 29 27 28 27 27 29 32 33 34 34 35 35 36 37 38 36 35 35 36 36 36 36 36 36 37 37 35 36 40 41 43 45 48 51 50 49
50 48 44 47 41 42 43 37 36 34 34 34 33 32 31 31 31 30 31 33 35 37 38 38 38 38 39 38 38 38 38 38 39 38 38 39 39 40 41 41 42 43 42 42 46 49 52 51 50
46 48 49 49 53 50 46 41 40 42 40 41 40 39 36 35 35 34 34 35 38 39 41 42 41 40 40 39 40 41 41 41 41 41 41 41 42 44 46 47 48 48 45 48 49 52 54 55 54
41 41 39 41 46 48 49 44 40 43 39 40 43 44 44 43 42 37 37 38 38 41 42 43 44 44 42 42 43 44 43 44 44 44 44 45 46 47 49 51 52 52 50 51 54 56 55 54 53
39 37 35 35 36 38 38 36 36 39 39 40 42 43 43 43 45 42 39 41 42 43 44 44 46 46 45 46 47 47 47 47 47 48 48 49 50 52 53 53 54 54 53 54 57 57 57 55 53
41 39 38 40 39 40 39 42 35 36 35 35 35 37 39 42 44 42 42 41 42 44 45 46 46 47 48 49 50 50 49 50 50 51 52 53 55 55 56 56 55 55 55 57 58 59 58 57 53
44 42 41 40 42 45 42 41 31 32 29 29 32 33 34 34 35 41 44 41 40 41 43 45 46 48 49 50 51 51 52 53 53 53 54 56 57 57 57 57 56 56 56 58 58 57 57 56 54
45 47 44 43 42 41 38 39 35 31 31 30 30 30 31 31 35 36 38 42 41 41 42 41 43 47 49 50 51 52 53 54 55 56 57 57 58 58 57 56 56 56 57 57 57 57 58 56 53
46 45 45 44 42 42 38 39 39 35 32 32 32 31 31 32 33 34 36 39 42 44 44 43 44 45 46 47 50 51 53 55 56 56 57 58 57 57 57 56 57 58 58 59 57 57 56 54 52
41 39 40 42 43 42 40 40 41 38 37 35 33 33 33 33 35 35 35 37 38 39 40 41 43 43 43 45 48 50 52 53 55 56 57 58 58 59 58 58 60 59 59 58 57 57 55 52 51
42 43 39 42 43 44 45 43 43 40 39 39 37 36 37 37 36 36 37 38 36 38 41 40 40 41 43 45 48 50 52 53 54 56 56 57 58 58 59 59 59 58 58 57 56 54 53 53 53
46 42 43 45 46 45 45 43 42 42 41 40 40 40 41 41 40 39 40 41 41 41 41 40 41 42 44 46 48 50 51 53 55 56 57 58 60 60 60 61 60 58 55 54 53 53 53 53 53
42 43 42 44 46 46 46 45 42 42 42 41 41 42 42 41 39 38 37 38 38 39 40 40 41 43 44 46 48 51 53 55 57 58 59 61 62 62 61 59 56 54 52 52 52 52 52 52 52
44 45 45 46 45 45 45 42 43 41 41 41 41 41 41 42 41 40 38 36 35 36 37 39 41 43 45 47 48 50 54 57 60 62 62 61 59 57 56 54 53 52 52 52 52 52 52 53 54
Wind_Direction
215 223 232 244 252 263 265 329 32 67 82 121 132 144 139 131 124 121 117 118 117 113 108 104 98 94 91 88 86 82 78 75 71 67 64 62 59 55 52 48 43 38 32 23 15 7 357 346 334
224 223 232 239 239 255 250 282 0 60 94 135 142 156 155 145 134 129 129 127 122 118 112 106 101 97 95 91 87 82 76 73 69 65 63 60 57 52 49 45 41 38 36 29 20 13 10 8 4
230 228 233 238 240 251 243 265 288 240 115 145 147 163 162 149 144 141 142 136 129 122 114 112 109 103 98 94 88 84 77 70 62 58 54 49 47 45 39 34 28 22 20 16 8 1 355 351 347
232 232 233 238 234 244 242 255 267 228 180 162 158 163 176 165 157 149 149 145 136 131 123 118 116 111 103 95 85 78 69 61 51 41 31 24 22 18 18 13 12 8 4 1 355 352 350 349 347
229 233 233 238 229 235 237 249 262 252 225 187 175 173 180 182 169 167 161 158 150 143 137 130 122 116 107 100 90 79 65 52 40 30 21 12 2 356 350 346 344 340 335 334 333 333 335 337 337
227 231 234 236 234 233 242 253 264 251 258 225 201 189 188 193 191 182 177 171 172 169 165 153 142 136 129 112 84 51 26 12 3 358 355 349 345 342 337 334 334 331 327 324 323 322 320 318 318
225 229 233 236 235 233 239 253 263 254 257 264 236 217 204 202 204 204 196 190 192 191 197 202 206 199 198 267 336 341 342 338 336 335 336 334 334 332 330 327 326 325 322 320 318 318 317 313 311
226 229 235 238 238 238 240 255 255 249 259 262 261 241 227 215 216 217 216 212 210 216 224 231 250 264 278 292 307 316 321 323 323 323 325 324 324 323 324 323 322 322 321 320 319 318 316 315 314
226 229 237 240 242 245 247 251 251 250 261 265 262 252 238 232 224 226 228 222 227 233 239 249 258 269 284 297 301 307 312 314 315 315 316 316 316 316 316 317 318 319 319 318 317 317 316 315 313
231 228 233 240 245 249 254 249 247 248 264 267 270 261 248 240 236 230 234 236 233 240 248 254 262 270 279 288 297 302 305 307 308 308 309 309 309 310 312 314 318 317 316 316 317 316 314 313 312
227 229 230 234 242 247 251 246 245 252 260 268 271 271 258 251 243 241 237 240 243 249 253 258 265 274 280 284 287 289 293 296 298 299 302 304 306 305 306 312 313 314 317 317 315 314 312 309 309
224 224 228 230 233 240 243 243 245 249 260 267 271 275 269 257 248 245 246 245 246 248 253 260 265 268 271 274 277 282 286 290 292 295 298 298 299 303 308 308 311 314 314 316 317 316 312 308 307
228 227 226 228 231 236 243 246 251 254 260 265 267 267 271 265 258 251 247 247 249 249 252 255 260 264 266 270 273 277 281 285 287 290 292 292 294 299 300 306 310 311 313 318 319 315 313 310 307
232 233 233 235 235 238 245 251 255 260 260 262 265 265 263 268 266 260 254 251 251 252 254 257 260 264 267 271 274 278 281 283 285 286 287 288 291 292 295 303 305 307 310 312 314 315 314 311 308
237 236 238 238 243 245 249 251 262 262 264 266 265 263 263 263 262 263 259 254 255 256 258 262 265 268 271 273 275 277 278 281 282 283 283 284 284 285 289 299 304 306 309 311 316 315 313 311 308
238 241 242 243 245 248 251 251 255 260 264 266 269 267 265 264 262 257 260 259 258 259 260 262 265 268 270 273 274 275 277 279 280 280 280 280 280 286 287 296 301 304 309 313 315 314 315 313 309
236 242 247 249 249 252 253 250 252 255 261 268 270 272 271 267 263 260 256 258 258 258 259 259 261 265 267 269 272 273 274 275 275 275 275 277 279 284 288 291 295 301 305 308 311 313 314 313 306
242 247 249 248 247 249 249 251 252 256 258 262 267 270 270 268 266 260 255 254 256 257 258 259 261 264 266 269 271 271 271 272 272 271 272 275 280 284 286 288 294 299 302 307 310 312 312 309 303
239 240 246 246 245 247 252 252 256 257 258 262 262 265 267 271 270 266 263 257 253 254 257 259 260 261 263 266 267 269 270 270 271 273 275 279 283 285 287 289 293 297 300 304 307 309 309 308 303
236 236 239 239 242 247 251 254 254 258 255 255 257 260 261 262 265 265 263 262 259 256 256 258 260 261 261 263 263 266 268 270 272 274 277 280 282 284 286 288 290 294 296 300 304 307 306 305 300
244 245 246 247 244 247 249 253 253 257 259 257 257 259 261 261 260 261 260 258 258 256 254 254 256 260 262 262 264 266 267 269 273 276 279 281 283 285 287 287 289 293 296 298 303 306 306 304 300
243 245 245 251 247 247 251 255 251 250 258 262 263 263 265 263 260 261 261 259 259 258 259 256 256 258 260 262 263 265 267 270 272 275 277 281 283 285 287 289 291 293 296 297 300 303 302 299 296
245 244 249 248 249 248 250 255 246 252 255 259 262 268 269 270 269 264 263 266 264 262 260 260 260 260 262 263 265 267 269 272 274 278 281 282 283 285 287 290 293 295 297 299 300 300 297 295 294
244 246 248 253 247 247 247 252 252 247 249 256 265 268 270 270 269 269 267 265 266 267 267 266 265 266 266 268 270 271 273 276 277 278 279 281 283 286 289 290 292 294 296 297 298 297 296 294 293
243 242 245 246 246 247 248 250 257 255 249 253 259 262 265 268 270 269 267 266 267 267 268 269 269 267 268 270 273 274 275 276 277 278 279 281 284 286 289 291 292 294 296 297 296 295 293 292 290
235 237 239 241 242 246 249 249 256 258 260 260 260 261 263 267 267 268 270 269 268 269 269 269 270 270 271 272 272 272 273 274 275 278 280 283 286 288 290 291 294 296 297 296 294 293 291 290 290
228 232 237 243 246 248 250 253 259 261 262 264 264 263 266 269 269 266 266 268 271 270 270 271 271 271 271 270 270 271 272 274 277 281 283 285 286 290 293 294 296 296 295 293 291 290 290 291 290
231 232 236 242 248 252 254 254 256 260 262 266 271 271 269 269 270 268 268 269 271 272 271 272 269 268 269 269 272 274 277 279 281 282 285 287 290 292 293 294 293 291 290 290 290 290 290 290 290
236 238 241 245 248 251 253 255 258 262 266 269 271 276 279 279 278 275 273 273 271 270 270 270 270 269 269 270 273 275 277 279 281 284 286 288 290 290 289 288 288 287 288 288 289 289 289 290 291
237 240 241 242 245 249 254 258 265 268 270 274 276 276 276 278 279 280 279 277 272 269 268 269 271 272 273 274 277 280 281 282 283 284 285 286 287 287 287 287 287 287 286 287 288 289 290 291 291
Height
5876 5878 5880 5881 5883 5881 5881 5883 5881 5880 5880 5879 5880 5880 5881 5881 5881 5884 5882 5883 5883 5882 5882 5882 5883 5883 5882 5882 5882 5882 5881 5881 5880 5880 5879 5879 5878 5877 5876 5875 5875 5875 5874 5873 5872 5871 5870 5869 5868
5874 5876 5879 5879 5881 5880 5881 5881 5880 5881 5880 5880 5881 5881 5882 5882 5882 5883 5884 5884 5885 5884 5884 5884 5885 5885 5885 5884 5884 5883 5883 5882 5882 5881 5881 5880 5879 5878 5877 5876 5876 5875 5874 5873 5872 5871 5869 5868 5867
5872 5874 5877 5878 5879 5879 5881 5880 5879 5879 5880 5879 5881 5882 5883 5884 5884 5884 5885 5886 5886 5886 5886 5886 5886 5886 5886 5886 5885 5885 5884 5883 5883 5882 5882 5881 5880 5879 5878 5877 5876 5875 5874 5873 5871 5870 5869 5867 5866
5869 5872 5875 5877 5877 5878 5879 5879 5878 5878 5879 5879 5880 5882 5884 5884 5884 5885 5886 5887 5887 5888 5888 5887 5887 5887 5887 5887 5887 5886 5885 5885 5884 5883 5882 5881 5880 5879 5878 5877 5876 5875 5874 5872 5871 5869 5867 5865 5863
5867 5870 5873 5875 5875 5876 5877 5878 5877 5878 5878 5879 5880 5881 5883 5884 5885 5885 5886 5887 5888 5888 5888 5888 5887 5887 5887 5887 5887 5886 5886 5885 5885 5884 5883 5881 5880 5879 5878 5876 5875 5873 5872 5871 5869 5867 5865 5863 5861
5865 5868 5871 5873 5873 5874 5875 5877 5876 5877 5877 5878 5879 5880 5881 5883 5884 5885 5886 5886 5887 5888 5888 5888 5888 5887 5887 5887 5887 5886 5886 5885 5884 5884 5882 5881 5879 5878 5876 5874 5873 5871 5870 5868 5867 5865 5863 5861 5859
5862 5865 5868 5870 5871 5872 5873 5875 5876 5876 5876 5877 5878 5879 5880 5881 5882 5884 5885 5886 5886 5887 5888 5888 5888 5887 5886 5886 5886 5885 5885 5884 5883 5883 5881 5880 5878 5876 5874 5872 5871 5869 5867 5866 5864 5862 5860 5858 5855
5859 5862 5865 5868 5869 5870 5871 5873 5875 5874 5875 5876 5876 5878 5880 5880 5881 5882 5884 5884 5885 5885 5886 5887 5887 5887 5886 5885 5885 5884 5883 5883 5882 5881 5879 5877 5875 5874 5872 5870 5868 5866 5864 5862 5860 5858 5856 5854 5851
5855 5859 5861 5864 5866 5868 5869 5870 5872 5873 5873 5873 5875 5876 5877 5878 5879 5880 5881 5882 5883 5883 5884 5885 5885 5885 5885 5885 5884 5883 5882 5880 5879 5878 5876 5874 5872 5870 5869 5867 5865 5863 5861 5859 5856 5854 5851 5849 5846
5851 5855 5857 5860 5863 5865 5867 5867 5870 5871 5871 5871 5872 5873 5874 5876 5877 5877 5878 5879 5880 5881 5882 5882 5882 5882 5882 5882 5881 5880 5879 5877 5876 5874 5872 5870 5869 5867 5865 5863 5861 5859 5857 5855 5852 5850 5847 5844 5841
5847 5850 5854 5856 5859 5861 5864 5866 5868 5869 5868 5869 5869 5869 5871 5872 5874 5874 5875 5876 5877 5878 5878 5878 5878 5879 5879 5878 5877 5876 5875 5874 5872 5870 5869 5867 5865 5863 5861 5859 5857 5855 5852 5850 5847 5845 5842 5838 5835
5842 5845 5848 5852 5854 5856 5859 5862 5865 5866 5867 5866 5866 5866 5866 5868 5869 5870 5872 5873 5874 5874 5874 5874 5874 5874 5874 5873 5873 5872 5871 5870 5868 5866 5865 5863 5861 5859 5857 5854 5853 5851 5848 5845 5842 5839 5836 5832 5829
5837 5841 5843 5846 5848 5851 5854 5857 5861 5862 5863 5862 5863 5863 5862 5864 5865 5867 5868 5869 5869 5870 5869 5869 5869 5868 5868 5867 5867 5867 5866 5865 5863 5861 5860 5858 5856 5854 5852 5850 5848 5845 5842 5840 5836 5833 5829 5825 5822
5832 5835 5839 5841 5844 5846 5848 5850 5855 5857 5857 5858 5858 5859 5859 5859 5861 5862 5863 5864 5863 5864 5864 5864 5864 5863 5863 5862 5862 5861 5860 5859 5857 5855 5854 5853 5851 5849 5847 5845 5842 5840 5837 5834 5830 5825 5822 5818 5814
5826 5830 5833 5836 5839 5841 5842 5845 5849 5849 5851 5853 5853 5854 5854 5855 5857 5857 5858 5858 5858 5859 5859 5858 5858 5858 5857 5857 5857 5855 5854 5852 5850 5849 5847 5846 5845 5844 5841 5839 5836 5834 5830 5826 5823 5819 5815 5810 5805
5819 5823 5826 5831 5833 5835 5837 5843 5841 5842 5843 5845 5847 5848 5849 5850 5851 5852 5852 5852 5853 5853 5853 5852 5851 5851 5850 5850 5850 5849 5847 5845 5844 5842 5841 5840 5839 5837 5835 5833 5829 5826 5822 5819 5815 5811 5807 5802 5797
5811 5815 5820 5824 5826 5828 5829 5836 5835 5837 5838 5838 5840 5842 5843 5843 5845 5846 5846 5846 5846 5846 5845 5845 5844 5844 5844 5843 5843 5842 5841 5839 5837 5836 5835 5833 5832 5830 5828 5825 5822 5818 5815 5810 5806 5802 5798 5793 5787
5805 5809 5813 5816 5818 5818 5820 5828 5829 5830 5832 5833 5833 5834 5835 5836 5836 5838 5838 5839 5839 5839 5838 5838 5838 5837 5836 5836 5836 5835 5834 5832 5830 5829 5827 5826 5824 5822 5819 5816 5812 5809 5805 5801 5797 5794 5789 5785 5779
5794 5798 5802 5806 5809 5811 5813 5820 5822 5821 5824 5826 5826 5827 5827 5828 5829 5830 5831 5831 5831 5831 5831 5831 5831 5830 5830 5829 5828 5826 5825 5824 5822 5820 5819 5817 5816 5813 5810 5807 5803 5800 5796 5792 5787 5784 5780 5775 5769
5786 5790 5794 5797 5800 5803 5805 5811 5813 5812 5817 5817 5817 5818 5819 5819 5821 5821 5822 5822 5822 5822 5822 5822 5823 5822 5822 5821 5819 5818 5816 5815 5814 5813 5811 5809 5807 5804 5801 5798 5794 5790 5786 5782 5778 5774 5769 5764 5757
5778 5782 5786 5789 5792 5794 5798 5802 5804 5805 5806 5807 5807 5808 5810 5809 5811 5812 5812 5812 5811 5811 5811 5811 5812 5813 5813 5812 5811 5809 5807 5806 5805 5804 5802 5800 5797 5794 5791 5787 5783 5779 5776 5772 5768 5763 5758 5753 5747
5770 5775 5778 5782 5784 5785 5790 5790 5797 5797 5798 5798 5799 5800 5799 5800 5800 5802 5802 5803 5803 5803 5802 5801 5802 5803 5803 5802 5801 5800 5799 5798 5796 5793 5791 5789 5786 5782 5779 5775 5772 5769 5765 5761 5756 5751 5746 5740 5735
5761 5766 5769 5772 5773 5776 5781 5782 5791 5790 5790 5791 5791 5791 5791 5791 5791 5792 5793 5793 5792 5793 5794 5794 5794 5793 5793 5793 5791 5790 5789 5788 5785 5783 5780 5777 5774 5770 5767 5764 5760 5756 5752 5748 5743 5738 5734 5728 5723
5753 5757 5761 5763 5765 5767 5773 5774 5777 5783 5784 5784 5783 5782 5783 5783 5783 5784 5784 5784 5784 5784 5785 5784 5784 5784 5783 5783 5782 5781 5779 5777 5774 5771 5768 5764 5761 5758 5755 5752 5748 5744 5740 5735 5730 5726 5721 5716 5711
5746 5750 5752 5755 5756 5758 5764 5765 5767 5772 5776 5777 5776 5776 5775 5774 5774 5774 5774 5774 5775 5775 5775 5774 5774 5773 5773 5772 5771 5769 5767 5764 5761 5758 5755 5752 5749 5746 5743 5739 5735 5731 5727 5722 5717 5712 5707 5702 5698
5737 5740 5743 5744 5747 5750 5754 5757 5758 5762 5764 5767 5768 5768 5767 5767 5766 5765 5765 5765 5765 5765 5764 5763 5763 5763 5762 5761 5759 5756 5753 5750 5748 5745 5743 5740 5737 5734 5730 5727 5723 5718 5713 5708 5703 5699 5694 5689 5685
5726 5729 5736 5738 5739 5742 5744 5749 5751 5752 5754 5755 5757 5758 5758 5757 5757 5756 5756 5756 5755 5755 5754 5753 5752 5751 5749 5747 5745 5742 5740 5738 5736 5734 5731 5729 5726 5722 5719 5714 5709 5704 5700 5694 5690 5685 5680 5676 5672
5717 5723 5726 5728 5731 5733 5736 5739 5741 5742 5744 5745 5745 5745 5747 5747 5747 5747 5746 5745 5745 5744 5743 5742 5741 5739 5736 5735 5733 5731 5729 5727 5725 5722 5720 5717 5713 5708 5704 5699 5695 5691 5686 5681 5677 5672 5667 5663 5659
5710 5714 5719 5722 5723 5724 5725 5728 5730 5732 5732 5733 5733 5733 5733 5733 5734 5734 5734 5734 5733 5732 5731 5730 5728 5727 5725 5724 5723 5721 5719 5716 5713 5710 5706 5703 5699 5694 5689 5684 5679 5675 5671 5667 5664 5659 5655 5650 5646
5698 5702 5706 5709 5713 5715 5716 5719 5719 5721 5721 5721 5722 5722 5723 5723 5722 5722 5723 5723 5723 5722 5721 5719 5717 5716 5715 5714 5713 5710 5707 5704 5700 5697 5693 5689 5684 5679 5675 5670 5666 5662 5658 5654 5650 5646 5641 5637 5632